This is the latest recevied weather packets stored in our database for station/object KD7MPG-3. If no packets are shown the sender has not sent any weather packets the latest 1 day(s).
| Time | Temp. | Humidity | Pressure | Rain* | Wind** | Luminosity | Snow |
|---|---|---|---|---|---|---|---|
| 1836274815 | 21.11° C | 63% | 1021.2 hPa | 0 mm | 0.45 m/s, 315° | - | - |
| 1836274517 | 21.11° C | 62% | 1021.1 hPa | 0 mm | 0.45 m/s, 275° | - | - |
| 1836274365 | 21.11° C | 63% | 1021.1 hPa | 0 mm | 0 m/s | - | - |
| 1836274211 | 21.11° C | 62% | 1021.1 hPa | 0 mm | 0.45 m/s, 337° | - | - |
| 1836273912 | 21.11° C | 62% | 1021 hPa | 0 mm | 0.45 m/s, 302° | - | - |
| 1778049129 | 15° C | 85% | 1025.8 hPa | 0 mm | 0 m/s | - | - |
| 1778048831 | 15° C | 84% | 1025.7 hPa | 0 mm | 0.45 m/s, 296° | - | - |
| 1778048524 | 15° C | 84% | 1025.7 hPa | 0 mm | 0.45 m/s, 296° | - | - |
| 1778048223 | 15° C | 84% | 1025.6 hPa | 0 mm | 0.45 m/s, 300° | - | - |
| 1778047924 | 15° C | 84% | 1025.5 hPa | 0 mm | 0.45 m/s, 297° | - | - |
| 1778047623 | 15° C | 84% | 1025.6 hPa | 0 mm | 0 m/s | - | - |
| 1778047324 | 15° C | 84% | 1025.6 hPa | 0 mm | 0.45 m/s, 269° | - | - |
| 1778047025 | 15° C | 84% | 1025.6 hPa | 0 mm | 0.45 m/s, 291° | - | - |
| 1778046720 | 15° C | 84% | 1025.6 hPa | 0 mm | 0.45 m/s, 343° | - | - |
| 1778046419 | 15° C | 84% | 1025.5 hPa | 0 mm | 0.45 m/s, 315° | - | - |
| 1778046121 | 15° C | 83% | 1025.5 hPa | 0 mm | 0.45 m/s, 323° | - | - |
| 1778045820 | 15° C | 83% | 1025.4 hPa | 0 mm | 0.45 m/s, 343° | - | - |
| 1778045522 | 15.56° C | 83% | 1025.4 hPa | 0 mm | 0.45 m/s, 0° | - | - |
| 1778045219 | 15.56° C | 83% | 1025.5 hPa | 0 mm | 0.45 m/s, 350° | - | - |
| 1778044915 | 15.56° C | 83% | 1025.5 hPa | 0 mm | 0.45 m/s, 335° | - | - |
| 1778044613 | 15.56° C | 83% | 1025.4 hPa | 0 mm | 0.45 m/s, 286° | - | - |
| 1778044315 | 15.56° C | 82% | 1025.4 hPa | 0 mm | 0.45 m/s, 305° | - | - |
| 1778044014 | 15.56° C | 82% | 1025.4 hPa | 0 mm | 0.89 m/s, 317° | - | - |
| 1778043712 | 16.11° C | 81% | 1025.3 hPa | 0 mm | 0.89 m/s, 347° | - | - |
| 1778043413 | 16.11° C | 81% | 1025.4 hPa | 0 mm | 0.89 m/s, 342° | - | - |
* Rain latest hour (hover to see other rain measurements)
** Current wind speed in m/s (hover to see current wind gust speed)